Mid-South Regional Weather Roundup Report



Select Weather Forecast Office:  



NWS Memphis Weather Forecast Office

NWS - Mid-South Regional Weather Roundup Report
County Warning Area [CWA]: MEG
Regional NWS Weather Office: Memphis, TN

000
ASUS44 KMEG 232210
RWRMEG
MEMPHIS CWA HOURLY WEATHER ROUNDUP
NATIONAL WEATHER SERVICE MEMPHIS TN
500 PM CDT MON OCT 23 2017

...WEST TENNESSEE...

CITY           SKY/WX    TMP DP  RH WIND       PRES   REMARKS
MEMPHIS INTL   MOSUNNY   70  42  36 SW9       29.92S
NWS MEMPHIS      N/A     70 N/A N/A MISG        N/A
JACKSON        MOSUNNY   66  46  48 SW7       29.90F
COVINGTON      SUNNY     70  43  37 SW9G15    29.89F
SOMERVILLE     SUNNY     68  43  40 SW9       29.90F
BOLIVAR        SUNNY     68  43  40 VRB6G12   29.91F
LEXINGTON      SUNNY     64  45  48 SW5       29.90S
SELMER         SUNNY     64  46  52 VRB5      29.92S
SAVANNAH       SUNNY     64  45  48 VRB7      29.92S
DYERSBURG        N/A     68  48  48 SW6       29.89F
UNION CITY     SUNNY     66  45  45 S9        29.86F
PARIS          SUNNY     63  43  48 W8        29.87S
HUNTINGDON     SUNNY     64  45  48 W6        29.88S


...EASTERN ARKANSAS...

CITY           SKY/WX    TMP DP  RH WIND       PRES   REMARKS
JONESBORO      SUNNY     74  46  36 SW12G23   29.86F
WEST MEMPHIS   SUNNY     70  43  37 SW8       29.90F
BATESVILLE     SUNNY     73  44  35 SW16      29.89S
NEWPORT        SUNNY     74  42  31 W15       29.87F
WALNUT RIDGE   SUNNY     74  46  36 SW16      29.84F
BLYTHEVILLE    SUNNY     71  46  40 SW14      29.87F
NW BLYTHEVILLE SUNNY     72  46  40 SW12G17   29.86
SEARCY         SUNNY     75  44  33 SW8       29.90F
STUTTGART      SUNNY     75  44  33 SW16      29.93F
PINE BLUFF     SUNNY     73  43  33 W10       29.96F
MONTICELLO     SUNNY     73  43  33 SW8       29.98F


...NORTH MISSISSIPPI...

CITY           SKY/WX    TMP DP  RH WIND       PRES   REMARKS
TUPELO         SUNNY     69  39  33 W8        29.95S
OXFORD         SUNNY     68  39  34 VRB6      29.97S
BATESVILLE     SUNNY     70  37  29 SW9       29.96S
OLIVE BRANCH   MOSUNNY  N/A N/A N/A VRB5      29.91S
TUNICA           N/A    N/A N/A N/A SW14      29.94F
CLARKSDALE       N/A     73  43  33 SW13      29.96S
CORINTH        SUNNY     66  41  39 W6        29.93S
GREENWOOD      CLOUDY    70  41  34 SW8       29.98F
COLUMBUS       CLOUDY    67  46  47 W7        29.97S
STARKVILLE     MOSUNNY   68  41  37 W6        30.00S
GOLDEN TRIANGL MOSUNNY   69  42  37 W12       29.98


...SOUTHEAST MISSOURI...

CITY           SKY/WX    TMP DP  RH WIND       PRES   REMARKS
KENNETT        SUNNY     72  45  37 SW13      29.84F
MALDEN         SUNNY     72  43  35 SW10      29.84F
WEST PLAINS    SUNNY     68  43  40 W17G29    29.89R
POPLAR BLUFF   SUNNY     73  41  31 SW10      29.81F
CAPE GIRARDEAU SUNNY     67  46  47 S12       29.82F


...NORTHWEST ALABAMA...

CITY           SKY/WX    TMP DP  RH WIND       PRES   REMARKS
MUSCLE SHOALS  SUNNY     64  44  48 W12       29.95R


...MIDDLE TENNESSEE...

CITY           SKY/WX    TMP DP  RH WIND       PRES   REMARKS
NASHVILLE      PTSUNNY   57  46  66 W8        29.88S
CLARKSVILLE    MOSUNNY   58  48  69 SW9       29.86S
COLUMBIA       SUNNY     59  48  67 CALM      29.89F


...WESTERN KENTUCKY...

CITY           SKY/WX    TMP DP  RH WIND       PRES   REMARKS
PADUCAH        SUNNY     65  41  41 SW7       29.84S
FORT CAMPBELL  MOSUNNY   58  50  74 SW10      29.85S


...CENTRAL ARKANSAS...

CITY           SKY/WX    TMP DP  RH WIND       PRES   REMARKS
LITTLE ROCK    MOSUNNY   74  45  35 SW8       29.93S


SKY/WX REPORTED AS FAIR MEANS FEW OR NO CLOUDS BELOW
12 THOUSAND FEET.

Mid-South Regional Weather Roundup Report from: NOAA-NWS